This is the latest recevied weather packets stored in our database for station/object KD9IXX-13. If no packets are shown the sender has not sent any weather packets the latest 1 day(s).
| Time | Temp. | Humidity | Pressure | Rain* | Wind** | Luminosity | Snow |
|---|---|---|---|---|---|---|---|
| 1777983301 | 10° C | 72% | 1010 hPa | 0 mm | 1.79 m/s, 0° | 9 W/m² | - |
| 1777983002 | 10° C | 71% | 1010 hPa | 0 mm | 0.45 m/s, 315° | 10 W/m² | - |
| 1777982702 | 10° C | 69% | 1009.9 hPa | 0 mm | 2.24 m/s, 299° | 7 W/m² | - |
| 1777982402 | 10° C | 68% | 1009.8 hPa | 0 mm | 1.79 m/s, 315° | 8 W/m² | - |
| 1777982102 | 10.56° C | 68% | 1009.8 hPa | 0 mm | 0.89 m/s, 316° | 6 W/m² | - |
| 1777981802 | 10.56° C | 67% | 1009.8 hPa | 0 mm | 1.34 m/s, 292° | 4 W/m² | - |
| 1777981502 | 10.56° C | 67% | 1009.3 hPa | 0 mm | 0.45 m/s, 301° | 4 W/m² | - |
| 1777981201 | 10.56° C | 66% | 1008.9 hPa | 0 mm | 0.89 m/s, 302° | 4 W/m² | - |
| 1777980902 | 10.56° C | 68% | 1008.9 hPa | 0 mm | 1.34 m/s, 342° | 4 W/m² | - |
| 1777980602 | 10.56° C | 69% | 1008.4 hPa | 0 mm | 0.89 m/s, 294° | 4 W/m² | - |
| 1777980302 | 10.56° C | 71% | 1008.8 hPa | 0 mm | 0.89 m/s, 296° | 2 W/m² | - |
| 1777980001 | 10° C | 76% | 1008.5 hPa | 0 mm | 0.45 m/s, 298° | 3 W/m² | - |
| 1777979702 | 10° C | 79% | 1008.4 hPa | 0 mm | 0.89 m/s, 313° | 9 W/m² | - |
| 1777979402 | 10° C | 80% | 1008.1 hPa | 0 mm | 0.89 m/s, 302° | 19 W/m² | - |
| 1777979102 | 10° C | 80% | 1007.8 hPa | 0 mm | 0.45 m/s, 317° | 23 W/m² | - |
| 1777978801 | 10° C | 80% | 1007.7 hPa | 0 mm | 0.89 m/s, 293° | 16 W/m² | - |
| 1777978502 | 10° C | 79% | 1007.8 hPa | 0 mm | 0.45 m/s, 307° | 8 W/m² | - |
| 1777978202 | 10.56° C | 77% | 1007.6 hPa | 0 mm | 0.89 m/s, 290° | 4 W/m² | - |
| 1777977901 | 10.56° C | 76% | 1007.6 hPa | 0 mm | 0 m/s | 0 W/m² | - |
| 1777977602 | 10.56° C | 75% | 1008.1 hPa | 0 mm | 0.45 m/s, 281° | 0 W/m² | - |
| 1777977302 | 10.56° C | 76% | 1008.1 hPa | 0 mm | 0.45 m/s, 289° | 0 W/m² | - |
| 1777977002 | 10.56° C | 75% | 1008.4 hPa | 0 mm | 1.34 m/s, 245° | 0 W/m² | - |
| 1777976702 | 10.56° C | 75% | 1007.7 hPa | 0 mm | 0.45 m/s, 279° | 0 W/m² | - |
| 1777976403 | 11.11° C | 75% | 1007.7 hPa | 0 mm | 0.45 m/s, 287° | 0 W/m² | - |
| 1777976102 | 11.11° C | 75% | 1008.1 hPa | 0 mm | 0.89 m/s, 276° | 0 W/m² | - |
* Rain latest hour (hover to see other rain measurements)
** Current wind speed in m/s (hover to see current wind gust speed)